Theta_e
324 325 321 322 324 321 325 325 323 325 327 328 330 336 339 338 340 338 334 333 331 330 336 335 331 332 335 335 336 336 336 336 336 336 335 333 330 330 330 328 328 329 328 328 330 330 330 330 329
323 323 322 319 326 325 324 324 328 328 327 328 331 334 337 339 334 336 334 329 329 335 335 332 330 328 334 334 333 333 334 334 335 334 333 331 330 330 329 328 327 328 328 328 330 330 329 327 328
324 321 320 322 324 321 324 328 328 328 325 327 330 333 336 337 333 336 336 334 334 334 333 332 329 328 331 333 331 330 333 333 331 330 329 329 330 328 327 327 328 328 328 328 329 329 326 325 326
323 321 319 327 332 325 327 327 324 323 322 325 332 337 334 334 335 338 338 337 335 334 331 331 328 329 331 330 329 329 331 329 329 330 330 329 329 327 325 327 327 327 327 327 327 325 323 324 325
323 317 326 327 328 320 326 324 321 323 323 327 332 338 337 335 337 338 337 336 336 332 331 330 328 329 329 328 328 328 328 328 329 328 328 328 328 329 327 326 327 326 326 324 321 324 322 321 321
323 319 327 332 330 320 325 322 321 323 324 333 334 336 337 336 338 337 337 336 335 333 331 329 329 328 328 328 326 327 327 327 328 327 327 325 325 327 328 325 326 324 320 315 315 321 322 321 321
325 322 326 329 329 321 323 321 322 322 320 327 332 337 334 335 337 337 336 335 333 329 327 329 329 328 327 327 327 326 326 326 326 326 326 326 325 327 326 324 325 319 317 314 312 317 321 321 321
322 323 328 326 326 324 322 321 318 321 324 326 332 336 335 335 337 336 335 333 330 327 324 329 330 328 327 326 327 326 325 326 325 325 324 325 325 324 325 323 320 318 317 316 316 319 320 321 321
322 326 329 327 324 323 321 321 319 321 324 328 332 331 332 335 336 335 334 332 331 328 324 328 331 328 327 326 324 325 324 324 325 324 324 324 324 323 323 321 319 317 317 317 317 318 320 320 321
324 325 328 326 323 322 321 320 319 325 325 329 335 333 334 335 335 334 333 332 331 329 326 327 331 329 327 325 324 323 324 324 323 321 321 324 323 324 323 321 319 317 317 319 321 320 321 321 321
325 328 326 321 320 320 321 320 318 323 325 327 332 333 333 334 334 333 333 333 332 330 329 326 329 329 327 326 323 324 324 323 322 322 323 323 323 323 322 321 319 316 316 320 321 321 321 321 321
329 326 327 322 317 320 319 317 319 321 321 320 329 333 333 332 333 333 332 333 332 331 331 329 325 327 327 326 323 319 322 323 321 324 324 324 324 321 320 318 317 315 318 321 320 320 321 321 321
331 331 326 318 317 317 315 317 317 316 315 327 332 333 332 332 333 334 333 333 333 332 331 331 329 328 328 326 324 320 319 321 322 326 326 325 324 323 315 316 316 317 320 320 321 318 318 318 319
330 332 324 317 318 318 317 318 319 315 318 333 334 333 331 332 332 333 333 333 332 333 332 332 330 329 328 327 321 320 319 323 323 325 327 326 325 320 321 321 321 320 321 320 320 319 319 318 318
328 333 321 318 317 318 318 321 320 317 322 334 334 333 330 330 331 332 333 332 333 332 333 333 332 329 329 328 327 324 323 325 325 324 326 326 326 323 324 323 322 320 320 320 320 320 320 320 318
328 330 329 323 316 317 318 322 319 315 313 326 331 331 331 330 331 331 333 332 332 333 331 332 333 332 330 330 329 327 327 326 326 325 323 324 325 325 325 324 323 322 321 320 320 320 321 321 320
330 333 330 327 316 318 320 324 323 318 315 314 314 321 331 331 330 331 332 333 332 332 331 330 332 333 332 330 330 328 329 328 327 326 324 323 323 326 327 325 324 323 321 320 321 321 321 321 322
333 334 328 331 320 318 320 324 323 318 319 319 315 312 315 327 330 332 332 333 333 332 331 330 329 331 332 331 330 330 330 329 327 326 325 324 323 323 325 326 324 324 323 322 321 322 323 323 323
329 331 330 328 322 319 320 321 322 320 318 316 317 316 314 313 322 329 332 333 332 332 330 330 329 329 330 332 331 330 330 329 329 328 326 325 324 323 323 325 324 324 324 323 323 323 324 324 324
329 331 331 324 322 320 320 321 319 318 318 317 316 315 314 313 313 319 327 331 331 331 330 329 329 329 329 330 331 330 330 328 328 329 329 326 326 325 324 322 324 325 324 324 324 323 324 324 324
330 332 331 329 320 320 321 322 321 319 318 317 317 317 315 314 314 311 319 327 329 329 329 329 329 329 329 328 330 330 329 328 327 327 327 328 328 327 326 324 323 325 325 325 324 324 324 324 323
334 329 330 324 326 328 319 327 316 317 319 317 319 315 315 313 313 313 314 322 327 329 330 329 329 329 329 328 328 328 328 327 327 326 325 325 327 328 327 326 325 324 325 326 326 325 324 324 322
331 321 325 326 324 321 318 321 319 315 316 314 314 316 316 314 313 313 313 318 324 328 329 329 329 328 329 328 328 328 327 327 327 326 326 326 326 326 327 328 327 326 325 325 326 326 324 323 321
322 321 323 320 320 330 322 321 320 317 316 315 313 312 313 312 313 314 317 317 318 324 327 329 328 328 328 328 327 327 327 327 326 326 326 326 325 325 324 326 328 327 327 325 326 326 324 322 321
324 329 326 328 328 330 317 320 324 317 314 313 313 311 311 310 309 310 309 312 317 318 323 327 328 329 329 328 328 328 328 327 327 327 326 326 326 326 326 326 327 327 327 327 327 327 324 323 321
327 329 327 332 328 324 314 323 322 315 315 311 311 310 308 307 307 307 308 310 312 314 318 323 327 328 329 330 329 329 328 327 327 327 326 326 326 326 327 327 327 327 327 327 327 327 326 323 323
327 329 321 314 304 314 315 314 313 311 312 311 311 308 307 305 304 304 305 308 308 310 313 319 324 327 328 329 330 329 329 328 327 327 327 327 327 327 327 327 327 327 327 327 327 326 326 324 323
324 319 321 317 317 318 316 315 316 314 313 312 308 308 307 306 305 304 304 307 308 308 309 312 318 323 326 327 328 330 331 331 330 329 328 328 328 328 328 328 328 328 328 328 326 325 325 324 324
321 324 319 317 315 319 317 316 310 314 314 312 308 307 306 305 303 303 304 307 308 308 309 309 309 312 315 318 322 326 327 328 329 330 330 330 329 329 329 329 329 328 328 328 327 326 325 324 322
320 324 317 324 320 314 315 315 309 312 313 310 308 308 305 304 302 302 303 306 307 308 308 309 309 308 309 308 308 309 310 314 318 324 327 329 330 330 330 329 329 329 329 327 327 326 326 324 322
Wind_Speed
21 20 12 3 4 5 1 1 1 3 3 3 3 9 8 3 1 3 9 13 23 20 16 12 12 15 15 15 16 16 17 16 17 17 18 19 21 20 21 20 18 18 17 18 19 20 19 19 19
22 17 4 2 4 3 3 1 5 2 6 8 8 4 6 2 3 9 12 23 20 19 16 14 13 14 14 14 13 13 13 15 17 18 18 17 19 19 20 19 18 18 17 18 18 19 19 18 18
18 6 3 4 3 2 4 3 6 3 3 3 4 6 3 3 7 8 18 24 20 17 15 13 13 15 15 16 16 15 15 17 18 17 16 17 17 17 19 17 17 17 17 17 17 19 18 18 19
9 6 4 4 1 2 7 6 5 5 3 7 5 6 3 3 4 13 26 23 19 16 15 14 13 16 17 15 15 14 15 13 15 15 17 17 16 15 15 16 17 16 16 16 16 19 19 18 18
4 3 3 3 3 1 3 5 6 4 4 4 2 3 2 3 21 29 28 23 20 18 16 16 15 17 17 15 14 16 14 16 17 16 15 16 14 13 15 15 16 15 16 16 18 19 19 18 16
3 3 3 1 2 2 2 5 7 4 4 5 6 5 2 17 29 28 24 21 18 18 17 17 16 17 18 18 17 17 16 17 17 17 15 14 13 11 13 11 14 15 15 16 17 19 18 17 16
3 3 4 4 3 4 6 6 8 7 7 4 9 4 3 10 28 25 25 22 20 18 18 19 18 17 17 18 17 18 17 17 17 15 15 14 15 13 9 10 12 13 14 16 17 20 18 18 16
3 3 3 3 3 5 4 4 5 6 3 6 6 7 7 11 26 25 24 22 21 19 18 20 20 18 19 21 20 18 20 20 16 16 16 15 14 12 10 10 12 13 13 15 16 18 17 16 14
1 3 3 4 6 4 5 5 1 2 6 3 2 6 8 29 28 26 24 22 23 22 20 21 21 20 19 19 18 17 16 19 19 17 17 17 16 12 11 11 12 12 13 15 16 16 15 13 13
2 3 7 5 4 5 7 5 7 5 4 3 2 3 25 32 30 26 23 21 25 24 23 23 23 23 20 19 19 18 18 17 15 14 15 16 15 12 10 10 10 10 12 12 12 11 11 10 11
4 4 4 1 3 8 8 5 4 9 3 7 9 9 17 21 23 22 23 27 28 26 24 24 23 22 22 19 18 19 18 17 15 15 15 15 13 11 11 11 11 11 12 12 9 8 8 9 9
3 6 4 1 2 3 9 7 5 5 6 8 12 20 20 16 20 23 26 29 28 29 26 24 24 22 21 20 20 19 20 19 20 19 17 15 14 12 13 12 12 12 12 10 8 7 8 8 9
2 2 4 1 1 3 7 4 5 6 2 9 17 12 13 19 21 23 26 30 29 30 28 26 25 24 21 19 21 21 21 21 21 19 17 15 16 13 14 14 13 13 11 10 9 7 9 9 10
4 4 3 3 4 2 5 2 2 6 6 9 15 14 11 17 24 20 27 31 32 31 31 28 28 27 23 22 20 22 22 21 21 21 19 18 16 16 16 15 14 13 12 10 10 9 9 8 9
3 3 2 3 4 3 4 1 6 3 8 11 11 12 11 16 21 27 32 31 36 33 30 32 32 29 27 24 22 23 22 22 22 21 21 20 19 18 17 16 16 14 13 13 13 11 10 9 8
5 4 6 4 6 3 4 6 9 7 10 10 10 10 12 15 24 29 29 32 34 34 35 32 34 33 31 28 27 26 24 24 23 23 23 25 23 22 19 20 19 17 16 16 15 13 12 11 10
5 4 7 3 9 3 6 5 9 8 9 9 10 11 13 13 17 27 36 37 38 39 35 38 36 37 35 32 29 28 25 28 26 25 25 25 26 24 24 23 22 19 18 18 16 15 14 14 14
7 5 7 8 9 6 5 7 4 4 10 14 11 10 11 13 18 32 36 40 40 39 39 39 40 39 37 35 33 30 28 28 30 29 29 27 28 29 27 26 24 22 21 20 19 19 17 16 14
9 8 11 8 5 5 11 8 11 8 4 7 9 10 12 13 24 26 33 37 35 38 40 42 43 41 38 38 38 36 38 34 31 31 32 31 30 30 30 29 27 26 25 25 22 21 20 18 15
14 12 11 3 3 7 6 13 10 7 7 8 10 10 10 8 8 17 28 31 35 40 43 41 45 43 41 40 40 34 35 35 39 37 36 35 34 33 33 34 32 30 29 28 26 25 22 20 18
8 18 11 7 4 1 3 8 7 8 6 9 13 10 9 12 12 9 21 29 33 36 42 45 47 45 43 42 38 34 28 30 31 39 42 42 38 37 35 36 36 34 33 32 30 29 27 24 21
18 7 9 6 10 6 6 5 5 8 14 9 19 10 13 12 9 9 17 25 32 40 43 47 46 45 43 41 38 39 34 30 34 35 40 42 43 40 39 38 37 38 37 37 35 32 31 28 25
6 10 8 5 6 4 4 2 6 3 7 11 14 17 17 15 13 11 17 28 38 37 40 45 43 44 44 42 41 40 37 34 30 33 35 37 41 41 42 42 41 40 40 40 38 35 35 34 31
10 10 8 5 1 9 9 8 5 6 8 6 7 11 13 11 11 11 21 26 29 38 39 38 37 42 43 44 44 41 38 32 27 30 34 34 37 41 43 45 45 44 43 44 43 41 40 39 38
8 18 4 4 4 5 7 7 12 7 8 9 11 10 11 10 9 10 9 13 19 25 32 36 38 39 40 44 44 44 44 39 36 37 37 32 36 37 45 46 48 49 49 47 45 45 44 44 42
25 18 6 8 5 4 4 9 8 13 10 9 7 6 6 8 8 8 10 16 20 21 25 33 37 39 38 41 43 44 43 39 39 38 37 36 36 38 40 42 46 49 48 49 47 46 47 46 45
11 14 11 7 3 3 5 6 9 7 9 9 10 5 7 7 8 9 8 10 9 8 15 23 30 34 33 37 39 38 40 40 37 39 36 38 40 42 41 40 43 46 48 48 47 46 47 47 48
15 10 7 1 7 5 4 5 7 7 11 13 9 10 9 7 6 6 7 10 8 7 7 11 18 26 29 30 30 35 38 40 42 39 40 42 42 38 38 41 43 43 45 45 43 42 42 45 48
8 13 6 5 4 9 4 7 9 17 17 16 12 11 10 9 9 8 8 10 9 6 5 6 9 13 16 20 24 28 33 35 37 38 39 39 39 39 39 42 42 40 42 44 44 43 41 40 41
19 20 6 13 8 4 4 6 7 16 15 10 11 11 8 8 10 8 12 14 10 6 4 6 7 9 11 13 17 22 25 29 32 35 35 34 36 38 39 40 41 41 41 42 42 43 43 41 40
Wind_Direction
328 335 334 41 51 62 39 32 133 80 61 350 31 97 120 70 50 174 154 152 153 147 144 143 128 131 126 120 116 114 112 108 107 106 103 100 98 94 94 92 89 88 90 91 97 97 90 84 78
329 337 9 76 77 63 282 311 127 129 136 120 91 91 51 64 73 116 128 151 151 143 143 134 127 132 129 126 122 117 117 115 112 109 107 105 102 102 96 92 91 91 92 97 99 99 89 81 83
328 341 67 83 107 154 180 213 149 133 95 107 94 54 97 128 111 148 154 152 147 144 140 131 128 129 129 123 115 109 117 118 116 116 114 115 115 110 100 98 93 92 95 101 102 102 95 90 95
334 357 32 81 227 230 163 185 172 136 62 67 116 69 30 271 114 150 150 149 143 145 142 134 129 127 126 122 118 121 128 134 129 126 116 116 113 114 112 109 99 97 100 103 106 112 100 94 100
350 52 45 58 283 302 104 175 162 117 102 38 117 123 56 45 142 149 155 150 147 146 147 140 135 136 134 133 133 130 134 134 128 130 134 134 120 114 113 108 105 102 105 110 118 120 110 101 104
2 85 67 208 216 99 158 183 151 114 118 163 80 98 105 144 145 156 157 154 159 156 153 145 141 140 139 135 133 137 137 140 138 136 136 125 142 131 123 116 112 107 107 114 122 128 123 113 114
135 94 202 200 225 161 187 166 149 146 138 156 140 99 145 158 156 160 156 156 155 157 155 151 150 147 145 145 142 145 146 147 147 145 141 134 134 139 128 130 118 113 112 115 122 132 127 118 114
121 108 181 239 190 228 154 129 135 127 121 110 142 159 177 166 158 157 157 158 155 158 159 157 157 157 152 153 153 156 157 152 155 158 152 143 146 156 159 146 131 122 118 117 119 127 126 124 117
114 74 205 223 165 214 176 127 125 68 109 72 14 153 173 155 157 158 155 159 159 160 166 166 166 165 165 162 163 166 163 158 167 168 160 153 153 161 163 154 139 133 130 131 131 135 135 132 129
176 153 217 217 187 184 167 140 148 104 117 46 34 19 151 154 155 152 160 169 169 168 171 173 174 171 173 174 172 170 170 171 174 163 166 164 165 170 168 161 152 143 140 139 139 140 141 137 139
187 206 229 237 232 172 162 135 159 132 207 196 184 164 150 157 157 163 174 179 180 176 176 182 181 182 180 180 179 178 176 177 177 171 163 164 173 180 184 177 170 160 156 159 164 169 163 162 153
218 225 256 223 13 174 160 132 124 182 210 184 169 166 160 171 175 178 184 186 187 186 186 186 188 190 193 192 187 187 185 184 180 179 181 187 187 187 194 189 182 176 172 177 180 183 186 177 174
250 299 234 233 140 80 113 144 172 201 157 116 135 162 179 182 189 190 192 193 191 194 192 192 192 194 197 201 199 193 189 187 185 189 196 201 198 206 194 191 192 194 197 201 198 193 194 193 192
222 231 276 239 176 67 129 131 134 226 122 136 154 177 185 192 194 189 198 196 195 198 197 195 198 200 201 202 204 201 198 196 194 200 207 208 211 208 201 201 206 210 214 212 214 215 212 204 201
155 204 295 226 199 177 129 250 217 172 152 161 177 180 191 207 198 205 200 203 203 203 201 200 199 200 204 208 212 208 206 208 210 209 214 216 216 217 218 216 216 215 217 216 217 219 221 222 219
148 176 202 227 153 221 152 241 238 183 152 193 192 189 197 209 208 210 212 209 210 209 208 206 204 205 207 212 213 213 212 216 218 218 216 219 220 219 223 225 224 222 220 219 219 221 225 232 231
197 191 202 193 199 135 180 240 239 182 187 202 210 205 206 214 218 215 214 217 214 217 213 213 210 211 210 214 215 215 220 220 223 225 223 221 221 222 223 229 229 227 224 224 225 227 229 228 230
161 200 190 205 207 184 188 245 263 185 191 218 213 216 211 216 218 215 216 215 216 219 219 217 217 217 215 216 218 220 221 222 224 227 228 225 224 223 225 228 229 226 225 225 226 226 228 234 238
168 162 195 213 197 137 202 215 235 222 221 228 230 224 219 214 228 218 217 215 211 215 218 217 217 219 217 215 217 221 223 223 223 225 230 230 231 227 226 229 229 227 228 226 226 226 228 229 234
166 193 197 226 182 171 205 238 242 245 236 209 228 231 220 217 219 218 217 212 210 210 214 214 217 219 219 219 220 218 224 227 230 232 232 232 233 232 229 230 229 228 228 227 228 225 228 232 229
184 199 198 201 106 7 107 272 222 249 236 246 247 229 232 216 213 217 214 210 209 207 210 215 219 219 220 221 219 221 225 232 235 236 235 233 233 234 233 234 232 231 231 230 228 226 224 227 229
204 159 189 152 151 201 162 270 249 216 236 221 243 229 228 228 228 213 210 210 210 214 216 217 220 221 221 219 213 214 216 221 227 233 234 234 234 236 236 237 236 235 233 233 232 230 228 230 235
188 128 147 182 174 127 199 214 265 188 236 230 231 235 228 226 221 221 213 217 219 219 217 219 218 220 224 220 217 217 220 227 230 232 237 238 238 237 239 238 238 237 237 237 235 235 232 231 235
124 95 47 39 59 222 196 188 246 198 206 246 226 228 222 211 218 230 232 229 226 225 223 222 217 220 222 224 221 221 223 225 227 230 234 236 240 242 240 239 239 239 239 238 236 236 235 232 231
146 156 134 190 206 231 159 183 238 230 240 225 233 231 219 206 199 221 232 223 229 229 225 223 222 220 223 223 225 225 229 227 227 233 235 232 236 235 241 238 237 238 239 241 240 238 236 234 233
175 175 159 170 183 195 120 222 237 220 219 214 226 243 192 185 194 207 224 233 231 234 230 225 223 225 224 227 227 230 232 229 231 235 236 236 236 241 243 243 241 241 240 243 243 242 240 239 238
179 195 168 97 349 99 204 280 298 209 229 241 242 200 191 172 182 183 180 193 203 221 232 229 227 232 228 231 233 231 234 233 233 238 239 239 244 245 246 246 246 245 244 244 242 240 239 239 241
183 157 162 208 145 218 250 274 222 220 216 231 204 203 206 199 178 180 174 185 196 201 211 219 227 235 240 242 241 240 241 243 243 241 242 241 243 243 242 247 248 246 247 245 239 237 237 238 240
157 188 180 133 173 188 161 244 203 203 216 202 202 199 187 189 184 184 178 175 171 169 184 201 219 232 243 248 250 249 249 249 250 250 248 249 247 245 244 246 245 244 244 246 242 239 237 235 236
179 189 177 188 206 231 163 258 189 207 208 175 191 199 204 187 184 188 178 176 184 197 218 229 226 240 247 251 252 252 255 254 254 254 256 256 255 254 250 255 250 247 246 243 240 239 237 233 233